Weather History for Randolph AFB, TX

Change the Weather History Date:

Sunday, August 4, 2013

  Actual Average Record
Temperature  
Mean Temperature 87 °F -  
Max Temperature 99 °F 94 °F 103 °F (2011)
Min Temperature 75 °F 72 °F 71 °F (2005)
Cooling Degree Days 22    
Growing Degree Days 37 (Base 50)    
Moisture  
Dew Point 72 °F    
Average Humidity 70    
Maximum Humidity 94    
Minimum Humidity 34    
Precipitation  
Precipitation 0.00 in - - ()
Sea Level Pressure  
Sea Level Pressure 30.03 in    
Wind  
Wind Speed 8 mph (South)    
Max Wind Speed 18 mph    
Max Gust Speed 25 mph    
Visibility 10 miles    
Events      
Averages and records for this station are not official NWS values.
T = Trace of Precipitation, MM = Missing Value Source: NWS Daily Summary

Daily Weather History Graph

Daily Weather History Graph

Search for Another Location

Airport:

Trip Planner

Search our weather history database for the weather conditions in past years. The results will help you decide how hot, cold, wet, or windy it might be!

Date:

Astronomy

Aug. 04, 2013 Rise Set
Actual Time 6:54 AM CDT 8:23 PM CDT
Civil Twilight 6:29 AM CDT 8:48 PM CDT
Nautical Twilight 5:58 AM CDT 9:19 PM CDT
Astronomical Twilight 5:26 AM CDT 9:50 PM CDT
Moon 4:58 AM CDT (8/4) 6:47 PM CDT (8/4)
Length of Visible Light 14h 19m
Length of Day
13h 28m
Waning Crescent, 4% of the Moon is Illuminated
Aug 4
Waning Crescent
Aug 6
New
Aug 14
First Quarter
Aug 20
Full
Aug 28
Last Quarter

Hourly Weather History & Observations

Time (CDT) Temp. Heat Index Dew Point Humidity Pressure Visibility Wind Dir Wind Speed Gust Speed Precip Events Conditions
12:58 AM 79.0 °F - 71.1 °F 77% 30.04 in 10.0 mi SSE 10.4 mph - N/A   Clear
1:58 AM 77.5 °F - 72.3 °F 84% 30.04 in 10.0 mi South 6.9 mph - N/A   Clear
2:23 AM 77.0 °F - 73.4 °F 89% 30.06 in 10.0 mi South 4.6 mph - N/A   Mostly Cloudy
2:58 AM 78.6 °F - 73.6 °F 84% 30.04 in 10.0 mi South 4.6 mph - N/A   Overcast
3:38 AM 77.0 °F - 73.4 °F 89% 30.06 in 10.0 mi SE 4.6 mph - N/A   Scattered Clouds
3:58 AM 76.1 °F - 73.0 °F 90% 30.04 in 10.0 mi SSE 4.6 mph - N/A   Scattered Clouds
4:08 AM 75.2 °F - 73.4 °F 94% 30.05 in 10.0 mi SSE 4.6 mph - N/A   Mostly Cloudy
4:38 AM 75.2 °F - 73.4 °F 94% 30.05 in 10.0 mi SE 4.6 mph - N/A   Overcast
4:58 AM 77.0 °F - 73.4 °F 89% 30.02 in 10.0 mi SE 3.5 mph - N/A   Overcast
5:18 AM 77.0 °F - 73.4 °F 89% 30.04 in 10.0 mi SSE 3.5 mph - N/A   Scattered Clouds
5:38 AM 75.2 °F - 73.4 °F 94% 30.04 in 10.0 mi SSE 4.6 mph - N/A   Mostly Cloudy
5:58 AM 75.2 °F - 73.4 °F 94% 30.01 in 10.0 mi SSE 4.6 mph - N/A   Overcast
6:53 AM 77.0 °F - 75.2 °F 94% 30.05 in 10.0 mi South 2.3 mph - N/A   Mostly Cloudy
6:58 AM 77.0 °F - 74.5 °F 92% 30.02 in 10.0 mi South 3.5 mph - N/A   Mostly Cloudy
7:03 AM 77.0 °F - 75.2 °F 94% 30.05 in 10.0 mi South 2.3 mph - N/A   Scattered Clouds
7:58 AM 77.0 °F - 74.7 °F 92% 30.04 in 10.0 mi SSE 2.3 mph - N/A   Partly Cloudy
8:13 AM 77.0 °F - 75.2 °F 94% 30.08 in 10.0 mi SSE 3.5 mph - N/A   Mostly Cloudy
8:23 AM 78.8 °F - 75.2 °F 89% 30.08 in 10.0 mi SSE 4.6 mph - N/A   Mostly Cloudy
8:58 AM 79.7 °F - 74.8 °F 85% 30.04 in 10.0 mi South 9.2 mph - N/A   Overcast
9:08 AM 80.6 °F 86.2 °F 75.2 °F 84% 30.07 in 10.0 mi South 10.4 mph - N/A   Overcast
9:23 AM 80.6 °F 86.2 °F 75.2 °F 84% 30.08 in 10.0 mi South 11.5 mph - N/A   Mostly Cloudy
9:38 AM 82.4 °F 88.2 °F 73.4 °F 74% 30.08 in 10.0 mi SSW 11.5 mph - N/A   Scattered Clouds
9:53 AM 82.4 °F 88.2 °F 73.4 °F 74% 30.08 in 10.0 mi SSW 9.2 mph - N/A   Mostly Cloudy
9:58 AM 83.5 °F 89.7 °F 73.2 °F 71% 30.06 in 10.0 mi SSW 8.1 mph - N/A   Mostly Cloudy
10:03 AM 84.2 °F 90.9 °F 73.4 °F 70% 30.08 in 10.0 mi SW 8.1 mph - N/A   Mostly Cloudy
10:08 AM 86.0 °F 93.4 °F 73.4 °F 66% 30.08 in 10.0 mi SSW 6.9 mph - N/A   Mostly Cloudy
10:33 AM 86.0 °F 93.4 °F 73.4 °F 66% 30.08 in 10.0 mi South 8.1 mph - N/A   Scattered Clouds
10:38 AM 86.0 °F 93.4 °F 73.4 °F 66% 30.08 in 10.0 mi South 11.5 mph - N/A   Mostly Cloudy
10:53 AM 86.0 °F 91.8 °F 71.6 °F 62% 30.08 in 10.0 mi SSE 10.4 mph - N/A   Scattered Clouds
10:58 AM 86.5 °F 92.9 °F 72.1 °F 62% 30.06 in 10.0 mi South 10.4 mph - N/A   Scattered Clouds
11:13 AM 87.8 °F 93.8 °F 71.6 °F 58% 30.08 in 10.0 mi SSW 8.1 mph 23.0 mph N/A   Mostly Cloudy
11:38 AM 89.6 °F 96.2 °F 71.6 °F 55% 30.07 in 10.0 mi South 11.5 mph - N/A   Scattered Clouds
11:58 AM 90.7 °F 97.4 °F 71.2 °F 53% 30.04 in 10.0 mi South 6.9 mph - N/A   Scattered Clouds
12:58 PM 90.5 °F 96.0 °F 70.0 °F 51% 30.02 in 10.0 mi South 10.4 mph - N/A   Scattered Clouds
1:58 PM 93.2 °F 98.3 °F 69.3 °F 45% 30.01 in 10.0 mi SSW 11.5 mph 16.1 mph N/A   Scattered Clouds
2:25 PM 93.2 °F 97.7 °F 68.0 °F 44% 30.01 in 10.0 mi SSW 11.5 mph 17.3 mph N/A   Scattered Clouds
2:58 PM 96.6 °F 101.5 °F 67.6 °F 39% 29.97 in 10.0 mi South 10.4 mph - N/A   Partly Cloudy
3:58 PM 99.1 °F 103.2 °F 66.6 °F 34% 29.94 in 10.0 mi SSE 11.5 mph - N/A   Mostly Cloudy
4:27 PM 96.8 °F 100.7 °F 66.2 °F 37% 29.96 in 10.0 mi SSE 15.0 mph 25.3 mph N/A   Scattered Clouds
4:58 PM 96.6 °F 100.3 °F 66.4 °F 37% 29.94 in 10.0 mi SE 8.1 mph - N/A   Mostly Cloudy
5:58 PM 99.3 °F 103.5 °F 66.0 °F 34% 29.91 in 10.0 mi SSE 12.7 mph 18.4 mph N/A   Mostly Cloudy
6:58 PM 95.4 °F 99.7 °F 67.3 °F 40% 29.91 in 10.0 mi South 5.8 mph - N/A   Clear
7:58 PM 92.7 °F 98.3 °F 70.0 °F 47% 29.92 in 10.0 mi SSE 16.1 mph 23.0 mph N/A   Scattered Clouds
8:58 PM 89.1 °F 94.1 °F 70.2 °F 53% 29.94 in 10.0 mi SSE 16.1 mph - N/A   Partly Cloudy
9:58 PM 86.5 °F 91.0 °F 69.4 °F 57% 29.97 in 10.0 mi SSE 18.4 mph - N/A   Clear
10:58 PM 83.7 °F 87.2 °F 69.1 °F 61% 29.99 in 10.0 mi SSE 11.5 mph - N/A   Clear
11:58 PM 81.3 °F 84.3 °F 68.4 °F 65% 30.01 in 10.0 mi SSE 10.4 mph - N/A   Clear